COSMOS 252 DEB

基本信息
目录编号:
19561
目录名称:
COSMOS 252 DEB
国际标识:
1968-097EU
轨道中心:
EARTH
物体状态:
已陨落(2024-11-16)
发射日期:
1968-11-01 UTC
轨道信息
数据来源: 国际轨道数据
星历时间: 2024-11-11T21:40:09+0800
半长轴: 6623.183km
偏心率: 0.0026827
轨道倾角: 62.203°
近地点辐角: 128.259°
升交点赤经: 251.238°
平近点角: 232.097°
近地点: 227.279km
远地点: 262.817km
周期: 89.405分钟
每日圈数: 16.106557
详细信息
发射场:
TTMTR
轨道高度:
LEO
数据来源:
AOE Integration Group
参考系:
TEME
时间系统:
UTC
历元类型:
SGP4
2D轨道图
3D轨道图
轨道高度分析图
轨道倾角分析图
轨道综合分析图
查看轨道综合分析图